Wind_Speed
30 31 31 31 33 30 28 32 34 34 30 25 25 25 25 26 27 30 29 27 31 34 32 26 30 26 30 35 41 41 41 39 42 38 42 47 46 43 40 42 42 27 32 36
37 38 37 37 37 37 36 34 34 33 34 29 31 29 30 31 33 34 32 32 35 36 40 41 38 41 41 35 39 42 39 44 41 39 42 45 44 40 41 35 33 30 37 42
41 38 39 39 41 39 38 38 38 37 35 35 37 35 35 40 41 39 39 39 38 39 40 40 41 40 43 38 39 44 43 43 42 40 42 40 44 33 26 29 34 34 39 43
42 41 42 43 46 44 45 43 43 43 44 40 39 39 45 45 46 47 47 45 45 44 42 42 42 43 45 44 46 48 46 44 47 41 39 40 44 31 25 28 29 37 51 56
45 47 49 52 52 49 53 49 49 49 49 46 49 45 49 50 52 52 53 52 50 48 45 44 43 48 49 48 50 50 49 52 49 47 39 33 31 23 26 31 38 48 52 51
52 52 52 55 55 54 55 56 54 54 54 51 57 53 48 56 57 57 58 56 53 52 50 45 46 47 45 44 48 52 50 52 48 45 41 40 40 36 37 37 36 41 43 43
54 51 49 47 47 49 51 53 53 54 54 54 58 57 52 53 56 56 58 57 54 52 51 53 54 53 48 46 48 49 45 46 49 46 43 40 42 42 40 37 37 44 33 43
30 32 36 38 41 44 43 42 44 46 46 46 47 48 52 55 56 60 60 57 55 56 55 55 54 54 53 49 47 52 52 52 49 48 43 45 45 38 41 45 42 32 41 49
23 31 28 31 32 32 35 39 42 40 40 41 45 45 44 50 52 55 55 54 53 55 54 54 56 58 61 62 59 51 52 51 48 49 50 51 49 46 46 44 36 39 46 45
15 23 18 25 26 31 32 36 38 40 38 39 40 42 46 49 49 48 48 44 44 49 49 52 55 55 55 54 55 57 56 56 55 57 56 51 56 49 49 48 44 40 51 52
18 24 30 27 28 28 25 24 30 33 32 34 40 44 51 51 55 51 51 46 42 42 39 41 47 57 63 55 52 53 54 56 57 57 57 57 55 54 52 42 43 44 52 50
21 21 27 34 34 32 30 31 29 29 30 29 27 36 49 54 57 56 58 55 49 48 45 43 43 44 42 52 58 53 53 53 59 59 60 61 56 50 45 41 43 46 48 49
27 24 23 26 36 38 39 38 35 32 34 33 33 32 42 49 53 53 52 53 54 54 51 48 45 47 45 49 50 46 47 46 46 44 42 40 40 39 39 42 46 47 45 45
30 29 29 29 32 38 40 43 43 41 36 37 36 36 43 47 50 50 43 46 53 52 52 51 51 52 47 48 46 47 45 49 49 48 48 47 44 42 45 45 48 45 45 45
41 39 39 38 38 42 43 46 51 49 46 43 35 39 44 45 50 54 53 50 48 51 52 52 52 52 53 52 51 52 48 51 52 48 48 46 42 39 42 44 43 43 45 47
49 46 43 44 46 45 42 45 51 57 56 53 48 45 45 46 47 53 58 53 54 54 51 52 51 51 49 51 50 50 50 49 53 53 52 49 48 46 47 47 47 45 46 46
50 51 52 49 51 52 51 52 57 58 59 60 56 54 54 52 54 55 55 58 53 53 57 55 53 52 51 54 53 51 50 51 53 52 52 51 49 51 55 54 54 53 49 48
59 61 56 51 56 57 59 64 66 65 64 62 61 61 60 61 62 62 60 59 61 57 56 59 56 55 57 55 54 55 54 51 53 55 54 53 50 50 50 57 61 55 50 48
63 64 64 64 63 60 62 66 70 73 69 68 67 66 67 68 70 72 70 66 64 64 64 61 60 57 56 58 59 59 56 53 52 53 54 54 48 46 38 36 68 47 54 54
68 68 67 69 70 66 65 68 73 78 73 77 76 76 75 73 75 75 77 75 71 68 67 65 64 61 56 57 58 56 53 52 49 51 51 50 48 45 40 42 48 46 62 59
75 74 73 74 71 70 69 72 79 83 81 82 82 84 82 80 81 80 81 82 80 76 72 67 66 65 62 56 58 54 51 50 47 50 49 54 48 44 43 45 46 51 59 63
76 77 76 76 76 76 80 82 85 87 88 89 90 91 89 87 87 87 86 86 85 82 78 71 66 64 64 58 54 49 44 39 41 47 43 49 65 77 60 56 51 60 68 70
74 76 78 80 85 93 92 92 91 90 92 97 98 97 97 93 92 91 90 88 86 85 81 79 72 67 62 56 55 48 43 42 43 40 41 38 57 109 73 67 73 74 76 68
79 79 81 87 97 95 97 101 102 104 104 103 101 100 100 97 94 93 93 93 90 89 87 83 78 71 62 57 51 50 49 50 37 20 29 38 58 71 76 77 79 76 77 75
81 85 90 95 97 98 105 107 106 104 97 90 86 84 84 85 88 92 94 95 94 91 88 84 79 73 64 63 61 53 56 55 35 28 27 46 92 75 64 67 74 72 72 74
89 91 94 99 105 105 107 98 89 82 82 83 82 83 85 83 82 85 86 86 85 82 81 78 73 70 66 67 67 61 60 56 60 49 58 68 69 73 73 73 74 69 71 64
Wind_Direction
270 269 269 274 277 275 276 275 272 270 269 267 267 268 267 261 266 266 259 270 256 255 255 267 262 265 275 277 275 278 280 280 291 294 293 290 294 298 300 303 309 302 313 312
269 269 273 274 275 273 275 275 272 273 273 270 267 267 273 270 264 261 258 261 257 251 259 266 264 266 260 269 279 277 273 271 280 288 294 291 291 299 294 296 297 300 309 312
267 270 270 273 274 273 274 274 274 272 271 271 272 272 267 266 265 263 263 260 259 257 258 263 266 271 277 272 276 280 272 272 271 281 288 294 295 293 302 305 294 291 301 310
267 268 270 273 273 274 273 272 274 273 274 272 272 273 270 265 267 268 266 266 266 266 265 267 271 276 279 282 284 280 268 272 273 281 291 297 311 297 299 313 290 300 310 309
270 269 271 271 272 274 273 273 273 274 275 276 276 272 275 274 270 267 265 266 263 264 266 268 273 273 273 277 276 279 281 279 276 284 295 301 319 289 288 309 304 309 310 302
269 270 270 271 271 269 270 271 271 271 271 271 266 269 269 269 267 267 266 266 267 265 262 254 261 265 264 270 273 274 277 267 274 284 289 296 295 297 295 297 305 309 306 301
274 273 272 272 272 271 271 272 272 270 268 269 268 270 265 265 267 266 266 268 267 266 267 259 255 257 258 262 265 262 264 264 266 277 281 285 290 297 301 307 300 301 282 282
278 273 270 272 270 272 272 272 269 270 272 270 269 268 263 260 262 262 263 266 266 267 265 264 262 257 254 265 269 259 261 265 272 272 278 283 283 287 278 287 291 295 267 277
277 278 280 275 276 278 273 272 273 272 271 271 273 269 264 266 265 267 268 268 266 266 266 265 263 261 258 257 260 263 268 268 272 271 280 278 280 286 294 293 290 294 281 282
275 278 278 277 276 273 275 278 279 278 273 273 272 274 273 270 270 272 272 269 268 267 267 266 268 267 267 266 263 263 263 265 267 273 275 272 279 279 288 293 288 289 288 288
284 277 283 290 292 287 295 300 298 297 293 285 278 275 273 271 272 270 271 269 268 267 264 266 266 264 262 264 268 271 273 273 270 268 264 271 268 274 282 288 286 287 291 290
269 269 272 289 289 290 294 297 291 284 287 295 283 272 275 273 277 277 274 272 273 274 275 274 271 272 271 265 268 275 271 269 265 267 266 263 269 274 279 284 286 290 290 292
273 282 281 281 282 286 294 294 297 299 286 281 277 276 276 279 279 277 277 279 275 274 271 267 269 272 275 270 270 271 271 267 271 271 267 269 267 273 281 287 289 287 289 294
273 274 283 278 276 281 287 290 293 295 293 283 278 271 274 279 282 285 289 287 282 277 271 267 265 264 266 269 270 270 265 264 271 271 268 271 269 274 280 287 290 290 294 297
273 277 273 273 275 275 279 288 289 287 290 293 286 285 282 283 278 280 283 283 281 278 275 271 268 264 264 262 264 267 267 268 269 270 271 275 279 279 284 285 283 289 295 291
283 285 283 284 282 281 277 280 280 281 282 289 292 290 288 285 283 281 280 281 277 278 279 271 268 268 261 259 256 258 261 265 267 268 272 277 281 283 280 281 281 285 286 280
284 284 282 286 282 285 285 278 277 280 281 285 288 288 288 286 281 280 277 276 276 276 274 274 268 262 264 264 260 256 251 253 262 264 270 275 278 283 287 293 293 290 287 279
287 288 289 284 283 285 285 284 283 282 280 284 285 285 287 285 282 279 277 273 274 273 272 269 269 266 260 259 259 259 260 262 267 274 280 283 286 289 296 299 301 294 290 290
283 285 286 286 286 288 287 288 286 282 282 284 285 285 287 286 280 278 279 277 273 273 269 269 268 266 263 257 258 259 262 264 267 271 275 279 281 285 292 292 283 293 296 292
283 282 283 285 285 287 288 288 287 287 287 284 286 287 286 283 279 279 278 278 276 273 268 267 267 265 264 259 256 259 262 263 265 267 272 277 281 278 277 279 280 280 281 285
285 285 286 287 286 288 290 286 286 288 288 286 284 284 282 279 277 274 274 274 274 271 268 264 262 266 262 261 258 259 256 255 256 258 266 271 282 281 280 282 285 292 286 283
283 285 287 288 289 289 287 288 287 288 287 285 283 282 278 275 274 273 272 272 271 269 266 264 260 261 259 258 257 253 252 247 254 261 270 256 256 270 271 272 278 283 289 284
283 284 288 291 291 290 294 292 290 287 285 285 284 280 277 274 272 270 270 269 267 266 264 262 261 257 255 249 250 249 239 235 249 255 246 237 220 251 266 275 279 279 283 280
286 289 288 288 289 293 293 292 292 291 290 286 282 278 276 274 271 270 269 268 266 264 262 261 258 257 248 238 241 237 243 239 239 242 245 230 235 255 261 269 274 276 279 277
289 289 290 292 291 293 291 291 291 290 288 286 283 282 280 276 273 270 267 265 264 262 259 259 253 252 243 231 232 236 236 236 220 192 198 203 244 254 257 263 272 272 276 276
291 292 293 294 296 296 294 295 294 293 291 289 287 284 282 278 273 270 266 263 258 254 255 250 247 243 236 227 227 233 234 231 203 197 203 211 233 242 256 261 266 271 273 275
Height
10901 10900 10902 10903 10902 10904 10905 10904 10906 10906 10909 10912 10913 10913 10914 10913 10913 10910 10910 10910 10910 10910 10909 10908 10906 10901 10900 10898 10897 10895 10892 10889 10887 10884 10882 10877 10875 10877 10875 10872 10870 10862 10860 10858
10894 10894 10895 10894 10894 10895 10897 10898 10897 10899 10899 10904 10904 10906 10906 10905 10903 10902 10903 10903 10901 10902 10901 10899 10896 10896 10895 10894 10893 10890 10887 10884 10882 10879 10877 10874 10871 10872 10869 10867 10863 10858 10855 10853
10886 10889 10887 10886 10885 10886 10888 10888 10888 10890 10892 10894 10894 10896 10898 10894 10893 10894 10892 10892 10891 10892 10892 10889 10887 10886 10884 10884 10883 10882 10880 10879 10874 10873 10870 10867 10864 10864 10860 10858 10859 10853 10851 10846
10878 10880 10879 10878 10875 10878 10877 10879 10880 10880 10880 10885 10885 10886 10883 10886 10884 10883 10881 10882 10882 10882 10882 10881 10879 10878 10875 10874 10871 10868 10869 10869 10864 10864 10862 10861 10856 10854 10853 10853 10852 10849 10844 10837
10870 10870 10869 10866 10865 10870 10864 10869 10870 10870 10870 10874 10871 10874 10870 10871 10870 10870 10871 10872 10875 10874 10875 10874 10871 10868 10866 10866 10862 10859 10857 10855 10852 10852 10851 10850 10849 10849 10847 10848 10845 10842 10835 10826
10858 10857 10856 10853 10853 10856 10853 10853 10858 10858 10857 10861 10851 10861 10864 10852 10852 10854 10854 10858 10862 10863 10864 10863 10860 10857 10856 10854 10852 10849 10847 10844 10843 10841 10841 10840 10841 10841 10841 10840 10840 10837 10828 10821
10844 10844 10842 10841 10841 10841 10841 10839 10839 10842 10840 10843 10838 10846 10848 10839 10835 10837 10838 10842 10847 10849 10850 10850 10849 10849 10847 10844 10842 10839 10835 10832 10833 10833 10832 10832 10832 10831 10834 10833 10833 10830 10824 10818
10832 10829 10830 10831 10828 10828 10829 10826 10823 10826 10828 10827 10825 10830 10826 10824 10822 10819 10824 10830 10832 10832 10834 10835 10837 10839 10837 10836 10833 10831 10827 10826 10825 10825 10823 10824 10825 10824 10824 10824 10824 10821 10816 10812
10823 10818 10823 10820 10820 10818 10816 10815 10813 10816 10816 10816 10811 10813 10812 10808 10810 10811 10816 10820 10820 10818 10820 10821 10821 10823 10824 10823 10821 10821 10820 10818 10816 10814 10813 10812 10813 10813 10812 10813 10812 10808 10806 10804
10818 10813 10815 10812 10812 10809 10810 10806 10804 10804 10808 10808 10806 10804 10801 10798 10799 10801 10804 10810 10808 10806 10808 10807 10806 10805 10805 10806 10807 10807 10807 10806 10806 10804 10803 10801 10803 10802 10800 10800 10800 10797 10793 10789
10811 10808 10803 10805 10805 10804 10804 10803 10798 10796 10797 10799 10799 10796 10788 10787 10783 10789 10787 10793 10795 10795 10797 10796 10794 10793 10791 10793 10794 10793 10794 10793 10791 10792 10789 10789 10789 10789 10788 10786 10785 10786 10780 10774
10807 10806 10801 10795 10793 10793 10795 10795 10794 10792 10789 10788 10789 10789 10775 10771 10773 10776 10774 10778 10785 10785 10785 10785 10785 10782 10779 10779 10782 10780 10780 10780 10777 10780 10779 10776 10776 10776 10775 10773 10773 10772 10768 10763
10799 10800 10799 10796 10786 10783 10784 10781 10781 10782 10782 10781 10780 10778 10768 10763 10761 10761 10762 10762 10766 10768 10769 10769 10771 10769 10768 10766 10767 10767 10765 10763 10762 10764 10762 10763 10765 10764 10761 10762 10760 10758 10755 10748
10790 10790 10789 10788 10784 10777 10772 10769 10766 10765 10768 10769 10771 10769 10762 10756 10751 10748 10751 10749 10748 10748 10750 10752 10754 10751 10753 10752 10752 10751 10749 10747 10745 10747 10747 10748 10751 10751 10749 10747 10744 10742 10738 10734
10779 10779 10777 10775 10773 10770 10768 10759 10750 10750 10752 10754 10758 10757 10754 10750 10742 10737 10737 10738 10735 10732 10732 10733 10733 10734 10736 10736 10735 10734 10735 10732 10732 10730 10730 10732 10735 10735 10734 10733 10731 10727 10724 10723
10765 10766 10765 10764 10759 10758 10757 10750 10742 10735 10735 10737 10741 10742 10740 10737 10733 10726 10721 10723 10721 10719 10717 10717 10717 10718 10717 10717 10717 10716 10717 10716 10718 10719 10719 10721 10721 10721 10722 10724 10722 10718 10715 10713
10751 10750 10750 10753 10745 10741 10742 10736 10728 10725 10722 10720 10722 10722 10722 10722 10717 10711 10708 10704 10705 10704 10701 10700 10701 10701 10702 10701 10699 10701 10700 10700 10700 10702 10704 10705 10708 10709 10708 10709 10709 10707 10704 10701
10733 10729 10731 10736 10731 10730 10723 10715 10708 10707 10706 10705 10703 10702 10702 10700 10696 10691 10689 10687 10684 10687 10685 10682 10684 10685 10686 10684 10683 10683 10686 10689 10689 10689 10692 10694 10697 10698 10699 10698 10693 10688 10688 10687
10718 10714 10714 10712 10712 10716 10710 10699 10690 10683 10686 10685 10684 10683 10679 10676 10673 10666 10666 10669 10668 10664 10666 10665 10664 10668 10669 10669 10668 10670 10674 10677 10680 10677 10676 10677 10682 10685 10692 10673 10688 10680 10673 10673
10702 10700 10698 10695 10692 10694 10693 10683 10671 10661 10669 10666 10662 10659 10656 10653 10650 10646 10640 10640 10644 10646 10646 10646 10644 10645 10651 10652 10653 10656 10660 10661 10665 10662 10662 10662 10666 10672 10677 10683 10679 10672 10664 10661
10679 10678 10678 10671 10668 10670 10671 10664 10650 10640 10645 10639 10638 10632 10629 10626 10623 10623 10616 10613 10613 10618 10622 10626 10627 10625 10628 10633 10635 10639 10642 10645 10649 10648 10649 10652 10653 10657 10661 10662 10661 10660 10657 10653
10662 10658 10652 10649 10645 10646 10639 10637 10627 10620 10614 10612 10608 10604 10601 10597 10593 10590 10590 10587 10586 10588 10593 10600 10607 10609 10609 10614 10616 10619 10626 10629 10632 10632 10636 10645 10661 10644 10644 10643 10641 10643 10642 10641
10644 10641 10637 10627 10617 10604 10610 10600 10597 10595 10590 10580 10573 10569 10565 10566 10562 10559 10558 10557 10557 10559 10564 10570 10579 10586 10589 10596 10599 10605 10609 10612 10615 10619 10622 10616 10661 10630 10631 10629 10629 10623 10625 10624
10621 10623 10618 10608 10586 10590 10575 10564 10562 10554 10549 10542 10536 10532 10526 10528 10527 10525 10523 10522 10525 10529 10534 10541 10551 10560 10568 10575 10582 10587 10592 10597 10604 10607 10612 10620 10614 10619 10621 10616 10612 10605 10608 10608
10604 10595 10588 10574 10567 10566 10542 10536 10527 10518 10509 10503 10497 10492 10488 10486 10486 10483 10484 10484 10488 10494 10501 10510 10522 10533 10545 10554 10560 10567 10573 10580 10591 10591 10611 10616 10592 10599 10599 10596 10592 10588 10588 10592
10577 10571 10561 10546 10534 10528 10507 10497 10488 10488 10477 10466 10463 10458 10450 10449 10448 10443 10445 10445 10449 10458 10466 10476 10490 10506 10518 10531 10540 10546 10551 10562 10565 10566 10576 10574 10577 10577 10578 10574 10568 10569 10573 10576